Tracking 29489 objects as of 9-Sep-2024
HD Live streaming from Space Station
objects crossing your sky now

FENGYUN 1C DEB

Track FENGYUN 1C DEB now!
10-day predictions


NORAD ID: 33724
Int'l Code: 1999-025DHM
Perigee: 817.9 km
Apogee: 860.2 km
Inclination: 98.6 °
Period: 101.5 minutes
Semi major axis: 7210 km
RCS: 0.0006 m2 (small)
Launch date: May 10, 1999
Source: People's Republic of China (PRC)
Launch site: Taiyaun Space Center, China (TSC)

Note: This is SATELLITE DEBRIS
Your satellite tracking list
Your tracking list is empty




NASA's NSSDC Master Catalog

Two Line Element Set (TLE):
1 33724U 99025DHM 24251.85250966  .00004098  00000-0  20102-2 0  9997
2 33724  98.6268 269.1163 0029309  73.7829 102.0663 14.18065860874250
Source of the keplerian elements: AFSPC